Flag for U.S.A. Weather past 2 weeks in Coeur d'Alene, Idaho, U.S.A.

Now
79 °F

Sunny.


Feels Like: 80 °F
Forecast: 65 / 93 °F
Wind: No wind

Location: Coeur d'Alene Weather Reporting System

Current Time: Jun 30, 2015 at 10:32:55 AM

Latest Report: Jun 30, 2015 at 9:55 AM


Visibility: 10 mi

Pressure: 30.04 "Hg

Humidity: 51%

Dew point: 59 °F

Location of Coeur d'AleneLocation

Historic Weather in Coeur d'Alene — Graph

°F

Coeur d'Alene temperature yesterday

Maximum temperature yesterday: 91 °F (at 11:35 AM)
Minimum temperature yesterday: 73 °F (at 10:15 PM)
Average temperature yesterday: 84 °F

Past Weeks' High & Low Weather Summary

 TemperatureHumidityPressure
High102 °F (Jun 28, 2:15 PM)82% (Jun 26, 3:55 AM)30.16 "Hg (Jun 26, 3:55 AM)
Low50 °F (Jun 21, 5:55 AM)10% (Jun 24, 12:15 PM)29.81 "Hg (Jun 18, 4:55 PM)
Average72 °F43%29.98 "Hg
* Reported Jun 15 9:15 AM — Jun 30 9:35 AM, Coeur d'Alene, Weather by CustomWeather, © 2015

Note: Actual official high and low records may vary slightly from our data, if they occured in-between our weather recording intervals... More about our weather records

Advertising

Coeur d'Alene weather history for previous 24 hours

 ConditionsComfort  
Time TempWeatherWind HumidityBarometerVisibility
9:35 AM
Tue, Jun 30
77 °FSunny.No wind54%30.04 "Hg10 mi
8:55 AM75 °FSunny.5 mph61%30.04 "Hg10 mi
7:55 AM72 °FSunny.8 mph69%30.04 "Hg10 mi
7:35 AM70 °FSunny.8 mph69%30.04 "Hg10 mi
6:55 AM66 °FSunny.9 mph78%30.03 "Hg10 mi
5:55 AM64 °FSunny.7 mph78%30.03 "Hg10 mi
5:35 AM64 °FClear.5 mph78%30.02 "Hg10 mi
4:55 AM63 °FClear.3 mph77%30.02 "Hg10 mi
4:35 AM63 °FClear.5 mph77%30.01 "Hg10 mi
4:15 AM63 °FClear.5 mph77%30.01 "Hg10 mi
3:55 AM66 °FClear.5 mph73%30.00 "Hg10 mi
3:35 AM64 °FClear.5 mph73%30.00 "Hg10 mi
3:15 AM66 °FClear.7 mph68%30.00 "Hg10 mi
2:55 AM68 °FClear.7 mph69%29.99 "Hg10 mi
2:35 AM70 °FClear.7 mph64%29.99 "Hg10 mi
2:15 AM70 °FClear.9 mph64%29.99 "Hg10 mi
1:55 AM72 °FClear.10 mph61%29.98 "Hg10 mi
1:35 AM72 °FClear.9 mph61%29.98 "Hg10 mi
1:15 AM73 °FClear.12 mph57%29.98 "Hg10 mi
12:55 AM73 °FClear.9 mph57%29.97 "Hg10 mi
12:35 AM72 °FClear.10 mph61%29.97 "Hg10 mi
12:15 AM75 °FClear.13 mph54%29.97 "Hg10 mi
11:55 PM
Mon, Jun 29
75 °FClear.12 mph54%29.97 "Hg10 mi
11:35 PM75 °FClear.10 mph61%29.96 "Hg10 mi
11:15 PM75 °FPassing clouds.10 mph61%29.96 "Hg10 mi
10:55 PM73 °FPassing clouds.10 mph61%29.95 "Hg10 mi
10:35 PM73 °FClear.No wind65%29.93 "Hg10 mi
10:15 PM73 °FClear.No wind61%29.93 "Hg10 mi
9:55 PM75 °FClear.No wind54%29.93 "Hg10 mi
9:15 PM79 °FSunny.5 mph45%29.90 "Hg10 mi
8:55 PM79 °FSunny.7 mph48%29.89 "Hg10 mi
8:15 PM84 °FSunny.6 mph43%29.88 "Hg10 mi
7:55 PM88 °FSunny.5 mph40%29.88 "Hg10 mi
7:35 PM88 °FSunny.7 mph40%29.88 "Hg10 mi
7:15 PM90 °FSunny.3 mph38%29.88 "Hg10 mi
6:55 PM90 °FSunny.No wind36%29.88 "Hg10 mi
6:35 PM90 °FSunny.5 mph36%29.89 "Hg10 mi
6:15 PM91 °FSunny.5 mph34%29.90 "Hg10 mi
5:55 PM91 °FSunny.8 mph34%29.90 "Hg10 mi
5:35 PM91 °FSunny.3 mph34%29.91 "Hg10 mi
5:15 PM90 °FSunny.5 mph36%29.92 "Hg10 mi
4:55 PM90 °FSunny.5 mph36%29.93 "Hg10 mi
4:35 PM90 °FSunny.9 mph38%29.93 "Hg10 mi
4:15 PM88 °FSunny.8 mph40%29.94 "Hg10 mi
3:55 PM88 °FSunny.7 mph40%29.96 "Hg10 mi
3:35 PM88 °FSunny.7 mph38%29.95 "Hg10 mi
3:15 PM88 °FSunny.8 mph40%29.95 "Hg10 mi
2:35 PM88 °FSunny.8 mph40%29.96 "Hg10 mi
2:15 PM90 °FPassing clouds.6 mph36%29.97 "Hg10 mi
1:55 PM90 °FPassing clouds.3 mph33%29.97 "Hg10 mi
1:35 PM90 °FSunny.No wind33%29.96 "Hg10 mi
1:15 PM90 °FPassing clouds.6 mph36%29.96 "Hg10 mi
12:55 PM90 °FSunny.8 mph38%29.97 "Hg10 mi
12:35 PM88 °FSunny.10 mph43%29.97 "Hg10 mi
12:15 PM90 °FSunny.8 mph38%29.97 "Hg10 mi
11:55 AM91 °FPassing clouds.5 mph32%29.97 "Hg10 mi
11:35 AM91 °FPassing clouds.5 mph32%29.97 "Hg10 mi
11:15 AM90 °FSunny.7 mph36%29.97 "Hg10 mi
10:55 AM90 °FSunny.9 mph33%29.97 "Hg10 mi
10:35 AM90 °FSunny.No wind33%29.96 "Hg10 mi
10:15 AM90 °FSunny.8 mph33%29.95 "Hg10 mi
Weather by CustomWeather, © 2015

See weather overviewHow to use our weather pages